STARLINK-33813, 63585

Orbit data source: Space-Track

STARLINK-33813, 63585 is a payload satellite owned by SpaceX/Seattle (US) in LEO that was launched on Mon, 14 Apr 2025 UTC via an FALCON 9 launch vehicle from the Air Force Eastern Test Range (AFETR). Payload-class satellites include a variety of spacecraft equipped with specific instruments for various scientific and technological missions. These include communications satellites like Starlink; space stations such as the ISS; scientific satellites like the Hubble; Earth observation satellites from companies like Planet Labs, Umbra, and HawkEye 360; GPS; miniature CubeSats for education and research; and military/defense satellites.

Loading next visibility...
Identifier
63585, 2025-076S
Orbit
LEO
Last TLE update
1 day ago
Origin
Manufacturer
SpaceX/Seattle
Mission
Operational Commercial Communications
Bus & Motor
STARLINK V2MO, Unknown motor
Mass
575 kg wet, ~530 kg dry
Launch date (UTC)
2025-04-14 (3 months ago)
Launch vehicle
FALCON 9
Launch site
Air Force Eastern Test Range (AFETR)
Object type
Payload
Rocket body
Debris
Shape & HBR
Box + 1 Pan, 29 m
Radar Cross Section
41.120 m², Large (>1 m²)

Expand to show TLE details & history

TLE from 1 day ago
0 STARLINK-33813
1 63585U 25076S   25186.64844079  .00014654  00000-0  54087-3 0  9998
2 63585  43.0028 276.4221 0001701 269.3791  90.6866 15.27586547 14051
Epoch: 2025-07-05T15:33Z
TLE epoch observation values (Epoch: 2025-07-05T15:33:45.284Z)
Latitude
0.00001°
Longitude
119.09996°
Altitude
482.819 km
Speed
7.626 km/s
True Right ascension
18h 25m 41s
True Declination
0° 00' 00"
Sunlit
Object was in full shadow at epoch
Visualization orbit readout
Latitude
33.65677°
Longitude
-113.28307°
Altitude
485.147 km
Speed
7.627 km/s
Apparent Right ascension
00h 39m 29s
Apparent Declination
-1° 57' 03"
Sunlit
Object is in daylight
Visualization observer readout
Local Sidereal Time
09:55:39
Azimuth
304.967° NW
Elevation
-36.921°
Doppler factor
1
Orbital elements
Apogee altitude
486.142 km
Perigee altitude
483.807 km
Semi-major axis
6,863.111 km
Eccentricity
0.00017
Inclination
43.0028°
RAAN
276.4221°
Arg. of periapsis
269.3791°
True anomaly
Unknown
Mean anomaly
90.6866°
Eccentric anomaly
Unknown
Mean motion
3.81735 °/min
Orbital period
94.31 mins
BSTAR
0.00054087
Loading maneuver chart data...
Loading SW <> Apogee altitude chart data...
Loading historical data...
Loading historical data...
Loading historical data...
Loading historical data...
Loading historical data...
Loading historical data...
Loading historical data...

STARLINK-33813 Visibility forecast

Observer location: undefined°, undefined°

Span
Click to sort rows by Start time (UTC) header in descending order
Start Az.
Max El. time (UTC)
Max El. Az.
Max El.
End time (UTC)
End Az.
5 mins2025-07-07 08:33:36.561Z204.697° SW2025-07-07 08:36:36.561Z138.228° SSE25.866°2025-07-07 08:38:36.561Z95.78° ESE
6 mins2025-07-07 10:12:36.561Z260.02° W2025-07-07 10:14:36.561Z285.181° WNW42.225°2025-07-07 10:18:36.561Z70.842° E
6 mins2025-07-07 11:51:36.561Z289.775° WNW2025-07-07 11:54:36.561Z26.56° NE37.072°2025-07-07 11:57:36.561Z78.887° E
6 mins2025-07-07 13:30:36.561Z286.858° WNW2025-07-07 13:33:36.561Z134.45° SE43.966°2025-07-07 13:36:36.561Z112.59° SE
4 mins2025-07-07 15:10:36.561Z243.56° WSW2025-07-07 15:11:36.561Z222.825° SW18.873°2025-07-07 15:14:36.561Z168.036° S
|